Tracking 35055 objects as of 19-Aug-2026
HD Live streaming from Space Station
objects crossing your sky now

STARLINK-3709

Track STARLINK-3709 now!
10-day predictions
STARLINK-3709 is classified as:


NORAD ID: 52102
Int'l Code: 2022-029Q
Launch date: March 19, 2022
Source: United States (US)
Launch site: AIR FORCE EASTERN TEST RANGE (AFETR)
Your satellite tracking list
Your tracking list is empty




NASA's NSSDC Master Catalog

Two Line Element Set (TLE):
1 52102U 22029Q   26230.75936076  .00000280  00000-0  19842-4 0  9999
2 52102  53.1616  62.7462 0001186  83.4404 276.6733 15.33554633245373
Source of the keplerian elements: AFSPC